Regional Weather Roundup
Issued by NWS

Home | Current Version | Previous Version | Text Only | Print | Product List | Glossary On
Versions: 1 2 3 4 5 6 7 8 9 10 11 12 13 14 15 16 17 18 19 20 21 22 23 24 25 26 27 28 29 30 31 32 33 34 35 36 37 38 39 40 41 42 43 44 45 46 47 48 49 50
835
ASUS45 KPSR 240110
RWRAZ

ARIZONA HOURLY REGIONAL WEATHER ROUNDUP
NATIONAL WEATHER SERVICE PHOENIX AZ
600 PM MST MON OCT 23 2017

NOTE: FAIR INDICATES FEW OR NO CLOUDS BELOW 12,000 FEET WITH NO
SIGNIFICANT WEATHER AND/OR OBSTRUCTIONS TO VISIBILITY.

AZZ001>003-036-240200-
NORTHWEST ARIZONA

CITY           SKY/WX    TMP DP  RH WIND       PRES   REMARKS
BULLHEAD CITY  PTCLDY    90  34  13 N17G23    30.08R
KINGMAN        PTCLDY    77  30  17 N13       30.27S
$$

AZZ004>008-015-016-018-240200-
NORTH CENTRAL ARIZONA

CITY           SKY/WX    TMP DP  RH WIND       PRES   REMARKS
GRAND CANYON   PTCLDY    63  21  20 NE7       30.49S
WILLIAMS       PTCLDY    64  19  17 NE9       30.47S
PRESCOTT       PTCLDY    75  24  15 N9        30.32R
FLAGSTAFF      PTCLDY    61  18  18 E12       30.49R
PAYSON         PTCLDY    73  19  13 N10       30.34S
PAGE           CLEAR     68  30  24 NW3       30.37R
$$

AZZ009>014-017-240200-
NORTHEAST ARIZONA

CITY           SKY/WX    TMP DP  RH WIND       PRES   REMARKS
WINSLOW        CLEAR     69  19  15 NW7       30.37R
SAINT JOHNS    PTCLDY    66  22  18 NW7       30.37S
WINDOW ROCK    PTCLDY    62  23  22 N8        30.45R
SHOW LOW       PTCLDY    63  19  19 N6        30.45R
$$

AZZ540-542>544-546-548-240200-
GREATER PHOENIX AREA

CITY           SKY/WX    TMP DP  RH WIND       PRES   REMARKS
PHOENIX        CLEAR     90  31  12 SW5       30.00R
BUCKEYE        CLEAR     88  19   8 W5        30.01S
GLENDALE       PTCLDY    90  32  12 CALM      30.02R
LUKE AFB       CLEAR     89  31  13 S5        29.99S
DEER VALLEY    CLEAR     89  24   9 SW3       30.02S
SCOTTSDALE     CLEAR     90  25   9 CALM      30.04S
MESA-FALCON    PTCLDY   N/A N/A N/A W6        30.03R
CHANDLER       CLEAR     90  25   9 W3        30.01
$$

AZZ539-553-240200-
SOUTHWEST MARICOPA COUNTY AND PINAL COUNTY

CITY           SKY/WX    TMP DP  RH WIND       PRES   REMARKS
CASA GRANDE    NOT AVBL
GILA BEND      CLEAR     81  28  15 CALM      29.99F
$$

AZZ503-504-507>509-240200-
SOUTHEAST ARIZONA

CITY           SKY/WX    TMP DP  RH WIND       PRES   REMARKS
TUCSON         PTCLDY    87  23   9 N12       30.10R
DAVIS-MONTHAN  PTCLDY    85  22  10 NW10      30.09R
RYAN FIELD     CLEAR     84  25  11 NW9       30.10R
NOGALES        PTCLDY    83  18   9 N5        30.16R
SIERRA VISTA   PTCLDY    74  14  10 SW9       30.24S
DOUGLAS        PTCLDY    75  16  10 N6        30.19S
SAFFORD        PTCLDY    76  13   9 NW9       30.12R
$$

AZZ532-240200-
SOUTHWEST ARIZONA

CITY           SKY/WX    TMP DP  RH WIND       PRES   REMARKS
YUMA           CLEAR     92  28  10 NW7       29.98S
$$

CAZ041-043-047-048-061-525>527-560>570-240200-
SOUTHERN CALIFORNIA

CITY           SKY/WX    TMP DP  RH WIND       PRES   REMARKS
DOWNTOWN L.A.  CLEAR     94  31  10 CALM      29.97F
L.A. AIRPORT   CLEAR     84  43  23 W8        29.99S
SAN DIEGO      PTCLDY    89  33  13 NW7       29.99R
BURBANK        CLEAR     97  20   6 CALM      30.02S
ONTARIO        PTCLDY    96  25   8 NE14      30.03R
RIVERSIDE      CLEAR     96  31  10 N12G26    30.03S
PALM SPRINGS   PTCLDY    97  29   9 NW7       30.06S
EL CENTRO NAS  PTCLDY    92  32  12 S3        30.00F
IMPERIAL       PTCLDY    92  31  11 W5        29.98S
BLYTHE         CLEAR     95  26   8 N13       30.01S
NEEDLES        CLEAR     92  29  10 N18G25    30.08F
$$

NVZ020-UTZ003-240200-
SOUTHERN NEVADA-UTAH

CITY           SKY/WX    TMP DP  RH WIND       PRES   REMARKS
LAS VEGAS      PTCLDY    87  33  14 N10       30.23S
SALT LAKE CITY MOCLDY    59  37  44 W7        30.59R
$$

NMZ009-TXZ055-240200-
NEW MEXICO-WEST TEXAS

CITY           SKY/WX    TMP DP  RH WIND       PRES   REMARKS
ALBUQUERQUE    PTCLDY    70  25  18 NW10      30.33R
EL PASO        PTCLDY    78  28  16 NE6       30.20R
$$


........................KEY........................
SKY/WX - SKY CONDITION/WEATHER
TMP    - TEMPERATURE IN FAHRENHEIT
DP     - DEW POINT IN FAHRENHEIT
RH     - RELATIVE HUMIDITY IN PERCENT
WIND   - DIRECTION AND SPEED IN MILES PER HOUR (MPH)
VRB    - VARIABLE WIND DIRECTION
PRES   - MEAN SEA LEVEL PRESSURE IN INCHES OF MERCURY
         F - FALLING PRESSURE   R - RISING PRESSURE
         S - STEADY PRESSURE
VSB    - VISIBILITY IN MILES
HX     - HEAT INDEX IN FAHRENHEIT
WCI    - WIND CHILL INDEX IN FAHRENHEIT
TC     - TEMPERATURE IN CELSIUS WHICH IS ALSO KNOWN AS
         TEMPERATURE IN CENTIGRADE
AFB    - AIR FORCE BASE
         LUKE AFB IS LUKE AIR FORCE BASE
         DAVIS-MONTHAN IS DAVIS-MONTHAN AIR FORCE BASE
NAS    - NAVAL AIR STATION
         EL CENTRO NAS IS EL CENTRO NAVAL AIR STATION
N/A    - NOT AVAILABLE





USA.gov is the U.S. government's official web portal to all federal, state and local government web resources and services.